Regional Weather Roundup
Issued by NWS Sterling, VA

Home | Current Version | Previous Version | Graphics & Text | Print | Product List | Glossary On
Versions: 1 2 3 4 5 6 7 8 9 10 11 12 13 14 15 16 17 18 19 20 21 22 23 24 25 26 27 28 29 30 31 32 33 34 35 36 37 38 39 40 41 42 43 44 45 46 47 48 49 50
000
ASUS41 KLWX 040310
RWRLWX

REGIONAL WEATHER ROUNDUP
NATIONAL WEATHER SERVICE BALTIMORE MD/WASHINGTON DC
1100 PM EDT SUN MAY 03 2015

Note: "FAIR" indicates few or no clouds below 12,000 feet
with no significant weather and/or obstructions to visibility.
 TC=TEMPERATURE CELSIUS

 * =Non NWS site. Station does not report precipitation (e.g. rain,
    snow, etc.), thunder, or fog.

DCZ001-MDZ009-015-VAZ040>042-051-053>054-040400-
WASHINGTON METRO

CITY           SKY/WX    TMP DP  RH WIND       PRES   REMARKS
WASHINGTON NAT CLEAR     65  54  67 S7        30.15R
DULLES         PTCLDY    60  46  59 S3        30.15R
ANDREWS AFB    CLEAR     64  45  49 S8        30.15R
FT BELVOIR     CLEAR     55  50  85 CALM      30.15R
QUANTICO       CLEAR     60  51  72 NW5       30.16R
COLLEGE PARK*  CLEAR     59  46  63 CALM      30.15R
LEESBURG*      CLEAR     61  48  63 W3        30.15S
MANASSAS*      CLEAR     55  52  88 CALM      30.15R
GAITHERSBURG*  CLEAR     59  45  58 CALM      30.19R

$$

MDZ006>007-011-014-040400-
BALTIMORE METRO

CITY           SKY/WX    TMP DP  RH WIND       PRES   REMARKS
BWI AIRPORT    CLEAR     60  46  59 S5        30.14R
MD SCIENCE CTR   N/A     69  42  37 MISG      30.14S
MARTIN STATE   CLEAR     61  48  63 CALM      30.15S
ANNAPOLIS      CLEAR     63  49  60 CALM      30.14R
FORT MEADE*    CLEAR     54  48  82 CALM      30.17R

$$

MDZ012-015-019>023-040400-
MARYLAND EASTERN SHORE

CITY           SKY/WX    TMP DP  RH WIND       PRES   REMARKS
OCEAN CITY     CLEAR     53  51  93 CALM      30.17R FOG
SALISBURY      CLEAR     56  50  80 CALM      30.16S
BAY BRIDGE AP*   N/A    N/A N/A N/A S8        30.15S
CAMBRIDGE*     CLEAR     59  46  63 SE3       30.16R
EASTON*        CLEAR     66  47  50 SW3       30.19R

$$

MDZ017>025-040400-
SOUTHERN MARYLAND

CITY           SKY/WX    TMP DP  RH WIND       PRES   REMARKS
PATUXENT RIVER CLEAR     65  42  43 S9        30.15S
ST INIGOES     CLEAR     62  47  57 S3        30.15S
LEONARDTOWN*   CLEAR     64  39  39 CALM      30.17S

$$

MDZ003>005-040400-
NORTH CENTRAL MARYLAND

CITY           SKY/WX    TMP DP  RH WIND       PRES   REMARKS
FREDERICK*     CLEAR     55  46  71 CALM      30.17R
HAGERSTOWN APT CLEAR     66  43  43 S5        30.14R
WESTMINSTER*   CLEAR     66  45  45 CALM      30.15S

$$

MDZ501>502-040400-
WESTERN MARYLAND

CITY           SKY/WX    TMP DP  RH WIND       PRES   REMARKS
OAKLAND*       CLEAR     59  36  41 W3        30.22R
CUMBERLAND*    CLEAR     59  45  58 CALM      30.18S

$$

VAZ025>031-040400-
SHENANDOAH VALLEY

CITY           SKY/WX    TMP DP  RH WIND       PRES   REMARKS
WINCHESTER*    CLEAR     64  36  34 SW3       30.15S
FRONT ROYAL*   FAIR      61  45  55 S5        30.15R
LURAY*         FAIR      55  46  71 CALM      30.17R
NEW MARKET*    FAIR      53  49  85 CALM      30.16R
STAUNTON*      CLEAR     53  46  77 CALM      30.20S
WAYNESBORO*    FAIR      59  40  49 SW3       30.19S

$$

WVZ021-048>050-054>055-040400-
EASTERN WEST VIRGINIA PANHANDLE

CITY           SKY/WX    TMP DP  RH WIND       PRES   REMARKS
MARTINSBURG    CLEAR     59  46  62 SW3       30.14S
PETERSBURG*    MOCLDY    54  44  70 CALM      30.18R

$$

VAZ036>039-050-040400-
CENTRAL FOOTHILLS

CITY           SKY/WX    TMP DP  RH WIND       PRES   REMARKS
CHARLOTTESVILL CLEAR     62  42  47 CALM      30.17R
CULPEPER*      NOT AVBL
ORANGE*        CLEAR     55  46  71 CALM      30.18S
GORDONSVILLE*  FAIR      52  48  86 CALM      30.16S
WARRENTON*     FAIR      53  49  87 CALM      30.15R

$$

VAZ055>057-040400-
NORTH AND CENTRAL PIEDMONT

CITY           SKY/WX    TMP DP  RH WIND       PRES   REMARKS
FREDERICKSBRG* CLEAR     62  52  70 CALM      30.15R
STAFFORD*      CLEAR     54  47  77 CALM      30.20R

$$

NCZ024-NYZ072-PAZ021-071-VAZ022-071-040400-
OTHER REGIONAL OBSERVATIONS

CITY           SKY/WX    TMP DP  RH WIND       PRES   REMARKS
NEW YORK CITY  CLEAR     64  41  42 CALM      30.16R
PHILADELPHIA   CLEAR     65  44  46 SW5       30.15R
PITTSBURGH     MOCLDY    63  43  48 CALM      30.13S
ROANOKE        PTCLDY    61  45  55 CALM      30.22R
RICHMOND       MOCLDY    63  46  54 CALM      30.17R
RALEIGH        PTCLDY    60  49  66 CALM      30.22R

$$

ANZ530>537-040400-
MARINE OBSERVATIONS

STATION/POSITION TIME  TEMP    WIND        PRES
                       AIR SEA DIR/SP/G
                 (UTC) (F)     (DEG/KT/KT) (MB)
THOMAS PT LIGHT  0300   63 59  180/  7/  8 1021.5R
BALT KEY BRIDGE  0200   70     180/  3/  5 1020.0R
COVE POINT       0200   70     210/ 12/ 14 1021.5R
LEWISETTA        0200   68 63              1020.9R
SOLOMONS ISLAND  0212      62                N/A
PINEY POINT      0200          210/  7/  7   N/A

$$




USA.gov is the U.S. government's official web portal to all federal, state and local government web resources and services.